Regional Weather Roundup
Issued by NWS

Home | Current Version | Previous Version | Graphics & Text | Print | Product List | Glossary On
Versions: 1 2 3 4 5 6 7 8 9 10 11 12 13 14 15 16 17 18 19 20 21 22 23 24 25 26 27 28 29 30 31 32 33 34 35 36 37 38 39 40 41 42 43 44 45 46 47 48 49 50
000
ASUS43 KLMK 010202
RWRKY
KENTUCKY REGIONAL WEATHER ROUNDUP
NATIONAL WEATHER SERVICE LOUISVILLE KY
1000 PM EDT TUE SEP 30 2014

NOTE "FAIR" INDICATES FEW OR NO CLOUDS BELOW 12,000 FEET
WITH NO SIGNIFICANT WEATHER AND/OR OBSTRUCTIONS TO VISIBILITY.

KYZ001>023-026-027-061>063-070>075-010300-
WESTERN AND SOUTH CENTRAL KENTUCKY

CITY           SKY/WX    TMP DP  RH WIND       PRES   REMARKS
PADUCAH        PTCLDY    64  59  83 CALM      29.89R
HENDERSON      NOT AVBL
OWENSBORO      CLEAR     74  60  61 NE5       29.91R
HOPKINSVILLE   PTCLDY    71  54  54 CALM      29.91R HAZE
BOWLING GREEN  CLEAR     70  56  61 CALM      29.92R
GLASGOW        PTCLDY    62  55  79 CALM      29.93R
$$

KYZ024-025-028>034-038-045-046-053-010300-
NORTH CENTRAL KENTUCKY

CITY           SKY/WX    TMP DP  RH WIND       PRES   REMARKS
LOUISVILLE/SDF PTCLDY    72  61  68 N7        29.93R
LOUISVILLE/LOU CLEAR     71  61  70 CALM      29.93R
FORT KNOX      CLEAR     64  58  80 N5        29.92R
$$

KYZ035>037-039>044-047>052-055>060-089>105-010300-
NORTHEAST KENTUCKY

CITY           SKY/WX    TMP DP  RH WIND       PRES   REMARKS
LEXINGTON      CLEAR     69  58  67 NE9       29.94R
COVINGTON      CLEAR     62  52  69 NE9       29.96R
FRANKFORT      CLEAR     70  59  68 N6        29.93R
$$

KYZ054-064>069-076>088-106>120-010300-
SOUTHEAST KENTUCKY

CITY           SKY/WX    TMP DP  RH WIND       PRES   REMARKS
JACKSON        CLEAR     68  56  65 CALM      29.94R
LONDON         CLEAR     64  59  83 CALM      29.96R
SOMERSET       CLEAR     63  59  88 CALM      29.95R
MIDDLESBORO    CLEAR     60  57  90 CALM      29.97S
MONTICELLO     CLEAR     59  56  89 CALM      29.96R
$$




USA.gov is the U.S. government's official web portal to all federal, state and local government web resources and services.